Voltar ao catálogo

COSMOS 2563

AtivoNavegaçãoHEO
NORAD 54223·PAYLOAD·🇷🇺 Russia

Lançado Nov 2, 2022 de Plesetsk Cosmodrome

Loading…

Próximas Passagens (próximas 24 horas)

TLE

AtualizadoSource: Space-Track

Época: Sep 14, 2026, 09:48 UTC

1 54223U 22145A   26257.40862931 -.00001053  00000-0  00000-0 0  9995
2 54223  63.1679 269.4641 6998681 269.9532  16.9107  2.00623041 28355

Acompanhe COSMOS 2563 em tempo real com AllMySat

Download on the App Store